When you browse on this site, cookies collect data to enhance your experience and personalize the content and advertising you see.
Visit our Privacy Policy to learn more. By continuing to use the site, you agree to this use of cookies and data.
  • în România
  • Lista ţărilor
  • Pe 7 zile
  • Temperatura apei
  • Meteo pe hartă
  • Widget-uri
  • user-avatar
    Intrare

    Meteo pe oră la Belém

    Astăzi, 14 Noiembrie, Joi

    Timp Temperatura Precipitaţii Vânt Presiune Umiditate
    00:00 +26°C° 0 mm 3 m/s 756 mmHg 91%
    01:00 +26°C° 0 mm 3 m/s 756 mmHg 92%
    02:00 +25°C° 0 mm 3 m/s 756 mmHg 92%
    03:00 +25°C° 0 mm 3 m/s 755 mmHg 93%
    04:00 +25°C° 0 mm 2 m/s 755 mmHg 94%
    05:00 +25°C° 0 mm 2 m/s 756 mmHg 94%
    06:00 +25°C° 0 mm 2 m/s 756 mmHg 94%
    07:00 +27°C° 0 mm 2 m/s 756 mmHg 86%
    08:00 +29°C° 0 mm 2 m/s 757 mmHg 78%
    09:00 +31°C° 0 mm 2 m/s 758 mmHg 69%
    10:00 +34°C° 0 mm 2 m/s 757 mmHg 62%
    11:00 +36°C° 0 mm 2 m/s 757 mmHg 54%
    12:00 +37°C° 0 mm 2 m/s 756 mmHg 46%
    13:00 +36°C° 0.2 mm 3 m/s 755 mmHg 52%
    14:00 +35°C° 0.2 mm 3 m/s 755 mmHg 58%
    15:00 +34°C° 0.2 mm 4 m/s 754 mmHg 64%
    16:00 +33°C° 0.1 mm 4 m/s 754 mmHg 69%
    17:00 +30°C° 0.1 mm 4 m/s 754 mmHg 74%
    18:00 +29°C° 0.1 mm 5 m/s 755 mmHg 78%
    19:00 +29°C° 0 mm 5 m/s 755 mmHg 79%
    20:00 +28°C° 0 mm 5 m/s 756 mmHg 79%
    21:00 +28°C° 0 mm 4 m/s 756 mmHg 80%
    22:00 +27°C° 0 mm 4 m/s 756 mmHg 82%
    23:00 +27°C° 0 mm 4 m/s 756 mmHg 84%

    Mâine, 15 Noiembrie, Vineri

    Timp Temperatura Precipitaţii Vânt Presiune Umiditate
    00:00 +26°C° 0 mm 3 m/s 756 mmHg 86%
    01:00 +26°C° 0 mm 3 m/s 755 mmHg 88%
    02:00 +26°C° 0 mm 3 m/s 755 mmHg 90%
    03:00 +26°C° 0 mm 3 m/s 755 mmHg 92%
    04:00 +26°C° 0 mm 3 m/s 755 mmHg 93%
    05:00 +25°C° 0 mm 2 m/s 755 mmHg 93%
    06:00 +25°C° 0 mm 2 m/s 756 mmHg 94%
    07:00 +27°C° 0 mm 2 m/s 756 mmHg 85%
    08:00 +29°C° 0 mm 3 m/s 757 mmHg 75%
    09:00 +31°C° 0 mm 3 m/s 757 mmHg 66%
    10:00 +34°C° 0 mm 3 m/s 757 mmHg 59%
    11:00 +36°C° 0 mm 3 m/s 756 mmHg 53%
    12:00 +37°C° 0 mm 3 m/s 756 mmHg 46%
    13:00 +36°C° 0 mm 4 m/s 755 mmHg 50%
    14:00 +36°C° 0 mm 4 m/s 754 mmHg 55%
    15:00 +35°C° 0 mm 5 m/s 753 mmHg 59%
    16:00 +33°C° 0.1 mm 5 m/s 753 mmHg 65%
    17:00 +32°C° 0.1 mm 5 m/s 753 mmHg 71%
    18:00 +30°C° 0.1 mm 5 m/s 753 mmHg 77%
    19:00 +29°C° 0 mm 5 m/s 754 mmHg 78%
    20:00 +29°C° 0 mm 4 m/s 754 mmHg 80%
    21:00 +28°C° 0 mm 4 m/s 755 mmHg 82%
    22:00 +28°C° 0 mm 4 m/s 755 mmHg 83%
    23:00 +27°C° 0 mm 3 m/s 755 mmHg 84%

    Poimâine, 16 Noiembrie, Sâmbătă

    Timp Temperatura Precipitaţii Vânt Presiune Umiditate
    00:00 +27°C° 0 mm 3 m/s 755 mmHg 85%
    01:00 +27°C° 0 mm 3 m/s 754 mmHg 87%
    02:00 +26°C° 0 mm 3 m/s 754 mmHg 89%
    03:00 +26°C° 0 mm 3 m/s 753 mmHg 90%
    04:00 +26°C° 0 mm 3 m/s 753 mmHg 91%
    05:00 +26°C° 0 mm 3 m/s 754 mmHg 92%
    06:00 +26°C° 0 mm 2 m/s 754 mmHg 94%
    07:00 +28°C° 0 mm 3 m/s 754 mmHg 84%
    08:00 +30°C° 0 mm 3 m/s 755 mmHg 74%
    09:00 +31°C° 0 mm 3 m/s 755 mmHg 65%
    10:00 +34°C° 0 mm 3 m/s 755 mmHg 58%
    11:00 +36°C° 0 mm 3 m/s 754 mmHg 51%
    12:00 +38°C° 0 mm 3 m/s 754 mmHg 44%
    13:00 +37°C° 0 mm 4 m/s 753 mmHg 48%
    14:00 +36°C° 0 mm 4 m/s 752 mmHg 53%
    15:00 +35°C° 0 mm 5 m/s 752 mmHg 57%
    16:00 +34°C° 0.1 mm 5 m/s 752 mmHg 64%
    17:00 +32°C° 0.1 mm 5 m/s 752 mmHg 70%
    18:00 +30°C° 0.1 mm 5 m/s 752 mmHg 77%
    19:00 +29°C° 0.2 mm 5 m/s 753 mmHg 79%
    20:00 +29°C° 0.2 mm 5 m/s 753 mmHg 81%
    21:00 +28°C° 0.2 mm 5 m/s 753 mmHg 84%
    22:00 +28°C° 0 mm 4 m/s 753 mmHg 84%
    23:00 +27°C° 0 mm 4 m/s 753 mmHg 85%

    17 Noiembrie, Duminică

    Timp Temperatura Precipitaţii Vânt Presiune Umiditate
    00:00 +27°C° 0 mm 4 m/s 753 mmHg 86%
    01:00 +27°C° 0 mm 4 m/s 753 mmHg 87%
    02:00 +27°C° 0 mm 3 m/s 753 mmHg 89%
    03:00 +26°C° 0 mm 3 m/s 752 mmHg 90%
    04:00 +26°C° 0 mm 3 m/s 753 mmHg 91%
    05:00 +26°C° 0 mm 3 m/s 753 mmHg 92%
    06:00 +26°C° 0 mm 3 m/s 753 mmHg 93%
    07:00 +28°C° 0 mm 3 m/s 754 mmHg 84%
    08:00 +29°C° 0 mm 3 m/s 754 mmHg 76%
    09:00 +31°C° 0 mm 3 m/s 755 mmHg 68%
    10:00 +34°C° 0 mm 3 m/s 754 mmHg 60%
    11:00 +36°C° 0 mm 3 m/s 754 mmHg 53%
    12:00 +38°C° 0 mm 3 m/s 754 mmHg 46%
    13:00 +37°C° 0.1 mm 4 m/s 753 mmHg 50%
    14:00 +36°C° 0.1 mm 5 m/s 752 mmHg 54%
    15:00 +35°C° 0.1 mm 6 m/s 751 mmHg 58%
    16:00 +34°C° 0.4 mm 5 m/s 751 mmHg 65%
    17:00 +32°C° 0.4 mm 5 m/s 752 mmHg 71%
    18:00 +30°C° 0.4 mm 5 m/s 752 mmHg 78%
    19:00 +29°C° 0.6 mm 5 m/s 752 mmHg 80%
    20:00 +28°C° 0.6 mm 4 m/s 753 mmHg 83%
    21:00 +28°C° 0.6 mm 4 m/s 753 mmHg 85%
    22:00 +27°C° 0 mm 4 m/s 754 mmHg 86%
    23:00 +27°C° 0 mm 4 m/s 754 mmHg 87%

    18 Noiembrie, Luni

    Timp Temperatura Precipitaţii Vânt Presiune Umiditate
    00:00 +27°C° 0 mm 4 m/s 754 mmHg 88%
    01:00 +27°C° 0 mm 4 m/s 754 mmHg 89%
    02:00 +26°C° 0 mm 3 m/s 753 mmHg 89%
    03:00 +26°C° 0 mm 3 m/s 753 mmHg 90%
    04:00 +26°C° 0 mm 3 m/s 754 mmHg 91%
    05:00 +26°C° 0 mm 3 m/s 754 mmHg 91%
    06:00 +25°C° 0 mm 3 m/s 754 mmHg 92%
    07:00 +27°C° 0 mm 3 m/s 755 mmHg 83%
    08:00 +29°C° 0 mm 3 m/s 755 mmHg 74%
    09:00 +31°C° 0 mm 3 m/s 756 mmHg 64%
    10:00 +34°C° 0 mm 3 m/s 755 mmHg 59%
    11:00 +35°C° 0 mm 3 m/s 755 mmHg 53%
    12:00 +37°C° 0 mm 3 m/s 755 mmHg 47%
    13:00 +36°C° 0.1 mm 4 m/s 754 mmHg 52%
    14:00 +35°C° 0.1 mm 5 m/s 753 mmHg 58%
    15:00 +33°C° 0.1 mm 6 m/s 753 mmHg 63%
    16:00 +33°C° 0.2 mm 6 m/s 753 mmHg 66%
    17:00 +32°C° 0.2 mm 6 m/s 753 mmHg 69%
    18:00 +30°C° 0.2 mm 6 m/s 754 mmHg 72%
    19:00 +29°C° 0.1 mm 5 m/s 754 mmHg 76%
    20:00 +29°C° 0.1 mm 4 m/s 755 mmHg 80%
    21:00 +28°C° 0.1 mm 4 m/s 756 mmHg 84%
    22:00 +28°C° 0 mm 3 m/s 756 mmHg 84%
    23:00 +27°C° 0 mm 3 m/s 756 mmHg 85%

    19 Noiembrie, Marţi

    Timp Temperatura Precipitaţii Vânt Presiune Umiditate
    00:00 +27°C° 0 mm 3 m/s 756 mmHg 86%
    01:00 +27°C° 0 mm 3 m/s 755 mmHg 87%
    02:00 +26°C° 0 mm 2 m/s 755 mmHg 89%
    03:00 +26°C° 0 mm 2 m/s 755 mmHg 90%
    04:00 +26°C° 0 mm 2 m/s 755 mmHg 92%
    05:00 +25°C° 0 mm 1 m/s 755 mmHg 93%
    06:00 +25°C° 0 mm 1 m/s 756 mmHg 94%
    07:00 +27°C° 0 mm 1 m/s 756 mmHg 84%
    08:00 +29°C° 0 mm 2 m/s 757 mmHg 75%
    09:00 +31°C° 0 mm 2 m/s 757 mmHg 65%
    10:00 +32°C° 0 mm 2 m/s 757 mmHg 62%
    11:00 +34°C° 0 mm 2 m/s 757 mmHg 59%
    12:00 +34°C° 0 mm 2 m/s 756 mmHg 56%
    13:00 +34°C° 0.5 mm 2 m/s 756 mmHg 61%
    14:00 +33°C° 0.5 mm 3 m/s 755 mmHg 65%
    15:00 +33°C° 0.5 mm 3 m/s 754 mmHg 70%
    16:00 +31°C° 0.3 mm 3 m/s 754 mmHg 73%
    17:00 +30°C° 0.3 mm 4 m/s 754 mmHg 77%
    18:00 +29°C° 0.3 mm 4 m/s 754 mmHg 80%
    19:00 +28°C° 0.4 mm 4 m/s 755 mmHg 84%
    20:00 +27°C° 0.4 mm 3 m/s 756 mmHg 87%
    21:00 +27°C° 0.4 mm 3 m/s 756 mmHg 90%
    22:00 +26°C° 0 mm 3 m/s 756 mmHg 91%
    23:00 +26°C° 0 mm 3 m/s 756 mmHg 92%
    Arată mai mult